This is the latest recevied weather packets stored in our database for station/object EA1BQO-1. If no packets are shown the sender has not sent any weather packets the latest 10 day(s).
| Time | Temp. | Humidity | Pressure | Rain* | Wind** | Luminosity | Snow |
|---|---|---|---|---|---|---|---|
| 1778083743 | 17.78° C | 26% | 1007.7 hPa | 0 mm | - | - | - |
| 1778083143 | 18.33° C | 26% | 1007.6 hPa | 0 mm | - | - | - |
| 1778082543 | 17.78° C | 29% | 1007.8 hPa | 0 mm | - | - | - |
| 1778081943 | 17.78° C | 28% | 1007.8 hPa | 0 mm | - | - | - |
| 1778081343 | 18.33° C | 25% | 1007.9 hPa | 0 mm | - | - | - |
| 1778080743 | 18.33° C | 25% | 1008.1 hPa | 0 mm | - | - | - |
| 1778080143 | 17.78° C | 26% | 1008 hPa | 0 mm | - | - | - |
| 1778079543 | 17.78° C | 26% | 1008.2 hPa | 0 mm | - | - | - |
| 1778078943 | 17.78° C | 22% | 1008.1 hPa | 0 mm | - | - | - |
| 1778078343 | 18.33° C | 23% | 1008.1 hPa | 0 mm | - | - | - |
| 1778077743 | 18.89° C | 22% | 1008.2 hPa | 0 mm | - | - | - |
| 1778077143 | 18.33° C | 22% | 1008.5 hPa | 0 mm | - | - | - |
| 1778076543 | 17.78° C | 21% | 1008.6 hPa | 0 mm | - | - | - |
| 1778075943 | 18.89° C | 22% | 1008.6 hPa | 0 mm | - | - | - |
| 1778075343 | 18.89° C | 22% | 1008.6 hPa | 0 mm | - | - | - |
| 1778074742 | 18.89° C | 23% | 1008.7 hPa | 0 mm | - | - | - |
| 1778074142 | 18.33° C | 25% | 1008.7 hPa | 0 mm | - | - | - |
| 1778073543 | 18.33° C | 21% | 1008.9 hPa | 0 mm | - | - | - |
| 1778072942 | 17.78° C | 27% | 1009 hPa | 0 mm | - | - | - |
| 1778072342 | 17.78° C | 26% | 1009.2 hPa | 0 mm | - | - | - |
| 1778071742 | 17.78° C | 27% | 1009.2 hPa | 0 mm | - | - | - |
| 1778071142 | 17.22° C | 30% | 1009.3 hPa | 0 mm | - | - | - |
| 1778070542 | 17.22° C | 32% | 1009.5 hPa | 0 mm | - | - | - |
| 1778069942 | 17.22° C | 29% | 1009.7 hPa | 0 mm | - | - | - |
| 1778069342 | 17.22° C | 32% | 1009.7 hPa | 0 mm | - | - | - |
* Rain latest hour (hover to see other rain measurements)
** Current wind speed in m/s (hover to see current wind gust speed)